Port Angeles, WA
on Sunday, November 11, 2012

Sunday
Previous Day Next Day
Daily Summary
 ActualAverageRecord
Temperature
Mean Temperature °F °F  
Max Temperature 45°F 51°F 63°F (1977)
Min Temperature 30°F 39°F 24°F (1985)
Degree Days
Heating Degree Days 28    
Moisture
Dew Point 33°F   
Average Humidity 81    
Maximum Humidity 93    
Minimum Humidity 60    
Precipitation
Precipitation 0.04 in in in ()
Wind
Wind Speed 3 mph   
Max Wind Speed 7 mph   
Max Gust Speed mph   
Visibility 10 miles   
Events Rain   
Averages and records for this station are not official NWS values.
Key: T is trace of precipitation, MM is missing value
Source: NWS Daily Summary
Seasonal Weather Averages
Time(PST)TemperatureDew PointHumidity Pressure Visibility Wind DirectionWind SpeedGust SpeedPrecipitationEvents Conditions
12:53 AM 30.9°F 27.0°F 85% 30.20 in 10.0 miles SW 6.9 mph - N/A   Clear
1:53 AM 30.9°F 27.0°F 85% 30.20 in 10.0 miles SW 4.6 mph - N/A   Clear
2:53 AM 32.0°F 28.0°F 85% 30.19 in 10.0 miles Calm Calm - N/A   Clear
3:53 AM 33.1°F 28.0°F 82% 30.18 in 10.0 miles Calm Calm - N/A   Overcast
4:53 AM 33.1°F 30.0°F 89% 30.17 in 10.0 miles Calm Calm - N/A   Partly Cloudy
5:53 AM 34.0°F 30.0°F 85% 30.17 in 10.0 miles Calm Calm - N/A   Overcast
6:53 AM 34.0°F 30.0°F 85% 30.17 in 10.0 miles Calm Calm - N/A   Overcast
7:53 AM 35.6°F 30.2°F 81% 30.15 in 10.0 miles Calm Calm - N/A   Overcast
8:53 AM 37.9°F 30.9°F 76% 30.17 in 10.0 miles WSW 3.5 mph - N/A   Overcast
9:53 AM 41.0°F 30.2°F 65% 30.15 in 10.0 miles WSW 3.5 mph - N/A   Overcast
10:53 AM 43.0°F 30.9°F 62% 30.16 in 10.0 miles WNW 4.6 mph - N/A   Overcast
11:53 AM 45.0°F 32.0°F 60% 30.14 in 10.0 miles West 6.9 mph - N/A   Overcast
12:53 PM 45.0°F 33.1°F 63% 30.11 in 10.0 miles West 4.6 mph - N/A   Mostly Cloudy
1:53 PM 45.0°F 35.1°F 68% 30.09 in 10.0 miles NNE 4.6 mph - N/A   Mostly Cloudy
2:53 PM 44.1°F 33.1°F 65% 30.08 in 10.0 miles Calm Calm - N/A   Overcast
3:53 PM 43.0°F 37.0°F 80% 30.05 in 10.0 miles Calm Calm - 0.00 in Rain Light Rain
4:53 PM 41.0°F 37.9°F 89% 30.03 in 10.0 miles Calm Calm - 0.00 in Rain Light Rain
5:53 PM 41.0°F 39.0°F 93% 29.99 in 6.0 miles East 3.5 mph - 0.03 in Rain Light Rain
6:53 PM 41.0°F 39.0°F 93% 29.98 in 10.0 miles West 3.5 mph - 0.01 in Rain Light Rain
7:53 PM 39.9°F 37.9°F 93% 29.98 in 10.0 miles WSW 5.8 mph - 0.00 in Rain Light Rain
8:53 PM 42.1°F 39.0°F 89% 29.98 in 10.0 miles WSW 6.9 mph - 0.00 in   Overcast
9:53 PM 42.1°F 39.0°F 89% 30.00 in 10.0 miles SW 5.8 mph - N/A   Overcast
10:53 PM 41.0°F 39.0°F 93% 30.00 in 10.0 miles WSW 3.5 mph - N/A   Overcast
11:53 PM 43.0°F 39.9°F 89% 30.01 in 10.0 miles WSW 5.8 mph - N/A   Overcast
Moon Phase
Nov. 11 Nov. 13 Nov. 20 Nov. 28 Dec. 06
Sunrise:07:15 AM (PST) Moon Rise:04:27 AM (PST)11/11
Sunset:04:40 PM (PST) Moon Set:03:14 PM (PST)11/11

Copyright © 2014 The Weather Underground, Inc.